Temp
94 90 82 83 83 83 84 84 84 84 84 84 83 83 84 84 83 83 84 83 83 84 84 84 84 84 84 84 84 84 84 83 84 84 83 83 83 83 84 84 83 90 83
98 92 82 84 84 83 83 84 83 84 84 84 84 84 84 84 83 84 84 83 83 84 83 84 84 84 84 83 84 84 84 84 84 84 84 84 84 83 83 83 85 86 83
98 93 89 83 83 83 83 84 83 83 84 84 84 84 84 84 83 83 84 83 84 84 84 83 84 84 84 84 84 84 84 84 84 84 84 90 90 83 83 84 84 83 83
100 97 94 82 83 84 84 84 84 84 84 84 84 84 84 83 84 84 84 84 84 84 84 84 84 84 84 84 84 84 83 83 84 84 87 86 95 83 84 83 83 83 82
100 101 91 83 84 84 84 84 84 84 84 84 84 84 83 84 84 85 84 84 84 84 84 85 84 84 84 84 84 84 84 84 84 86 88 87 84 86 83 83 83 82 83
102 99 85 84 84 84 84 83 84 84 84 84 84 83 84 83 84 84 84 84 84 84 84 84 85 84 84 84 83 84 84 84 84 87 87 91 84 84 83 83 85 83 82
103 97 91 84 84 84 84 84 84 84 84 84 84 84 84 84 84 84 84 84 84 84 85 85 84 84 84 84 84 84 83 83 82 82 83 92 84 82 83 83 84 83 82
102 99 93 84 84 84 84 84 84 84 84 84 84 84 84 84 84 84 84 85 84 85 84 84 84 84 84 84 84 84 83 82 80 78 78 81 81 83 82 83 82 82 82
104 100 96 93 88 83 84 84 84 84 84 84 84 85 84 84 85 85 85 84 85 85 85 84 84 84 84 84 84 84 84 84 77 76 77 78 81 82 80 80 83 82 83
102 102 98 95 93 89 90 85 85 84 84 84 84 84 85 85 85 85 84 85 85 85 85 85 84 84 84 84 84 84 84 84 85 80 75 77 80 82 80 77 78 80 81
100 101 100 98 91 86 90 89 85 84 84 84 84 84 85 87 90 88 86 85 85 85 85 85 85 84 84 84 84 84 85 82 89 78 76 78 79 76 77 78 77 77 79
98 98 98 96 96 94 97 90 91 90 92 90 91 90 89 83 91 85 88 85 85 85 85 85 84 84 85 92 91 85 90 90 89 87 82 79 79 78 79 80 79 78 79
99 100 99 99 98 98 96 95 88 96 95 95 89 92 89 95 95 95 92 92 89 87 88 86 89 91 85 90 89 88 89 87 85 83 86 80 80 80 80 81 80 81 80
98 98 99 98 95 97 97 97 98 89 97 96 95 94 93 95 96 96 97 97 95 86 93 93 86 89 90 90 90 89 89 89 86 88 86 81 80 81 81 81 81 81 81
97 96 97 95 91 94 93 96 99 98 98 93 92 96 97 90 86 96 95 90 85 89 87 88 85 87 82 90 89 86 89 89 87 88 89 82 81 81 81 80 80 82 81
98 96 99 97 92 94 92 93 97 99 100 99 98 96 94 94 91 84 89 85 86 85 85 85 85 88 86 91 89 92 91 86 87 84 88 82 81 81 82 81 80 81 81
99 99 98 96 96 93 93 92 96 98 101 99 98 94 93 92 93 87 86 86 86 86 94 87 91 92 91 92 93 93 93 87 90 92 91 91 82 82 82 82 81 81 80
99 96 97 99 98 96 95 92 96 98 99 97 99 97 93 93 91 89 82 84 86 89 85 85 83 80 92 93 86 85 94 91 94 92 91 93 91 85 82 82 81 81 81
99 96 94 96 96 95 93 94 96 97 94 95 99 97 93 93 93 91 85 83 91 85 84 85 88 94 89 86 86 85 87 90 95 96 93 90 93 92 91 82 80 80 82
99 96 94 95 95 93 93 94 96 94 93 88 92 88 89 96 94 93 93 90 93 93 88 87 88 93 90 81 93 96 96 99 98 89 93 97 94 91 93 90 83 81 80
98 96 93 92 92 93 93 93 93 93 95 86 88 95 95 94 94 93 94 86 93 90 91 90 87 82 90 91 90 92 73 74 85 80 75 89 93 94 93 95 90 83 81
97 95 93 91 91 91 94 94 96 96 98 98 99 95 94 94 94 93 92 82 89 90 91 90 89 90 90 93 88 90 86 80 83 93 94 95 95 98 98 98 95 86 86
97 95 93 92 91 91 93 94 94 96 96 96 96 96 95 94 94 93 93 92 92 92 85 90 90 89 89 92 89 87 84 82 86 90 91 92 95 96 98 96 94 91 88
99 98 96 93 92 91 91 93 90 91 91 95 95 97 97 95 95 95 93 92 91 92 89 93 93 90 89 85 86 90 88 84 81 82 92 94 95 95 96 95 96 91 88
102 101 98 94 92 93 91 91 92 90 94 97 97 95 93 95 95 96 94 92 91 93 93 91 91 90 91 87 89 90 87 87 84 83 82 88 93 96 97 96 94 93 88
104 102 101 95 91 92 91 90 91 90 90 94 94 95 95 96 97 94 95 93 92 93 93 93 91 90 89 89 91 87 88 83 86 86 86 86 88 91 95 89 95 94 93
MSLP
1010.82 1012.49 1013.50 1013.76 1013.93 1014.15 1014.13 1014.16 1014.27 1014.37 1014.43 1014.57 1014.81 1014.97 1014.94 1015.17 1015.31 1015.47 1015.47 1015.67 1015.81 1015.80 1015.93 1015.98 1015.99 1016.13 1016.23 1016.23 1016.28 1016.46 1016.46 1016.49 1016.64 1016.65 1016.74 1016.84 1016.89 1016.98 1016.97 1017.03 1016.95 1016.58 1017.42
1010.48 1012.39 1013.49 1013.77 1013.99 1014.17 1014.31 1014.37 1014.49 1014.58 1014.66 1014.80 1014.98 1015.07 1015.09 1015.36 1015.54 1015.64 1015.71 1015.86 1015.94 1015.94 1016.09 1016.14 1016.15 1016.27 1016.30 1016.39 1016.41 1016.54 1016.61 1016.69 1016.72 1016.77 1016.93 1016.99 1017.10 1017.19 1017.30 1017.32 1016.90 1017.13 1017.48
1010.67 1012.31 1013.31 1013.66 1014.12 1014.24 1014.53 1014.60 1014.65 1014.70 1014.84 1015.05 1015.09 1015.16 1015.32 1015.49 1015.70 1015.82 1015.89 1016.02 1016.08 1016.05 1016.21 1016.31 1016.35 1016.39 1016.46 1016.54 1016.64 1016.69 1016.73 1016.82 1016.83 1016.72 1016.67 1016.04 1016.44 1017.32 1017.48 1017.43 1017.45 1017.46 1017.75
1010.47 1011.73 1012.74 1013.78 1014.12 1014.42 1014.63 1014.74 1014.80 1014.86 1015.09 1015.21 1015.24 1015.38 1015.57 1015.73 1015.85 1015.90 1016.06 1016.16 1016.19 1016.20 1016.29 1016.31 1016.38 1016.51 1016.63 1016.67 1016.81 1016.87 1016.91 1016.98 1016.89 1016.94 1016.66 1016.26 1015.81 1017.35 1017.54 1017.56 1017.69 1017.84 1017.99
1010.29 1010.71 1012.90 1013.80 1014.18 1014.46 1014.72 1014.83 1014.93 1015.06 1015.19 1015.27 1015.40 1015.48 1015.69 1015.76 1015.96 1015.97 1016.09 1016.23 1016.37 1016.42 1016.36 1016.37 1016.46 1016.56 1016.64 1016.77 1016.86 1017.01 1017.09 1017.12 1016.99 1016.79 1016.46 1016.42 1016.38 1017.08 1017.51 1017.77 1018.02 1018.12 1018.14
1009.77 1010.79 1013.31 1013.84 1014.20 1014.48 1014.80 1014.95 1015.02 1015.25 1015.34 1015.38 1015.50 1015.65 1015.87 1016.05 1016.09 1016.15 1016.25 1016.34 1016.37 1016.41 1016.45 1016.48 1016.54 1016.60 1016.71 1016.87 1017.06 1017.14 1017.27 1017.29 1017.17 1016.73 1016.01 1016.00 1016.62 1017.36 1017.56 1017.83 1017.82 1018.18 1018.44
1009.63 1011.56 1013.06 1014.00 1014.26 1014.61 1014.94 1015.05 1015.16 1015.38 1015.50 1015.57 1015.68 1015.85 1016.00 1016.06 1016.21 1016.28 1016.38 1016.40 1016.50 1016.55 1016.53 1016.55 1016.68 1016.86 1016.91 1017.06 1017.18 1017.22 1017.38 1017.39 1017.34 1017.01 1016.58 1016.16 1016.90 1017.45 1017.70 1017.90 1018.02 1018.25 1018.45
1009.84 1011.33 1013.02 1014.17 1014.41 1014.72 1015.01 1015.13 1015.24 1015.46 1015.69 1015.77 1015.84 1016.06 1016.17 1016.25 1016.28 1016.41 1016.45 1016.44 1016.61 1016.65 1016.68 1016.76 1016.87 1016.99 1017.04 1017.19 1017.23 1017.24 1017.40 1017.59 1017.69 1017.53 1017.39 1017.00 1017.29 1017.45 1017.80 1017.98 1018.27 1018.35 1018.48
1009.73 1010.81 1012.51 1013.40 1014.25 1014.88 1015.07 1015.20 1015.29 1015.61 1015.85 1015.95 1015.98 1016.10 1016.31 1016.32 1016.36 1016.48 1016.47 1016.60 1016.69 1016.77 1016.80 1016.90 1016.95 1016.98 1017.04 1017.16 1017.19 1017.22 1017.19 1017.33 1017.77 1017.93 1017.64 1017.38 1017.50 1017.84 1017.97 1018.31 1018.17 1018.36 1018.46
1009.86 1010.40 1011.40 1012.37 1013.39 1014.28 1014.62 1015.15 1015.41 1015.65 1015.92 1016.04 1016.13 1016.22 1016.26 1016.31 1016.42 1016.51 1016.57 1016.67 1016.72 1016.74 1016.75 1016.80 1016.87 1016.92 1016.96 1017.08 1017.12 1017.05 1017.01 1017.04 1017.18 1017.63 1017.95 1017.85 1018.12 1018.16 1018.39 1018.70 1018.94 1018.71 1018.67
1009.98 1010.24 1010.97 1011.79 1013.36 1014.14 1014.21 1014.88 1015.46 1015.77 1015.94 1016.06 1016.17 1016.19 1016.15 1015.81 1015.87 1016.13 1016.29 1016.47 1016.62 1016.66 1016.63 1016.65 1016.66 1016.70 1016.76 1016.75 1016.80 1016.80 1016.78 1016.56 1016.26 1017.01 1017.53 1017.71 1018.19 1018.65 1018.85 1018.86 1019.02 1019.10 1018.84
1009.71 1010.21 1010.81 1011.46 1012.20 1013.08 1013.04 1014.52 1014.69 1015.23 1015.16 1015.27 1015.06 1015.49 1015.36 1015.72 1015.41 1016.00 1015.91 1016.32 1016.40 1016.42 1016.46 1016.45 1016.46 1016.54 1016.56 1015.70 1016.07 1016.65 1016.22 1016.06 1016.04 1016.38 1016.97 1017.20 1017.63 1017.98 1018.25 1018.31 1018.53 1018.82 1018.82
1009.50 1009.87 1010.83 1011.18 1011.64 1012.27 1012.56 1013.74 1014.31 1013.85 1014.15 1014.33 1014.90 1014.73 1014.65 1014.62 1014.83 1014.79 1015.05 1015.47 1015.61 1015.97 1015.79 1016.21 1016.12 1015.87 1015.87 1015.39 1015.31 1015.43 1015.35 1015.47 1015.64 1015.83 1016.04 1016.69 1017.03 1017.31 1017.50 1017.85 1018.10 1018.20 1018.56
1009.34 1010.07 1010.91 1011.53 1012.25 1012.21 1012.63 1012.85 1012.71 1013.25 1013.20 1013.70 1014.27 1014.51 1014.59 1014.13 1014.18 1014.05 1013.99 1014.02 1014.65 1015.30 1014.87 1015.18 1015.35 1015.24 1015.10 1015.26 1015.16 1015.16 1015.09 1014.98 1014.88 1015.07 1015.26 1015.76 1016.27 1016.66 1017.03 1017.18 1017.26 1017.58 1017.95
1009.15 1010.32 1010.87 1011.79 1012.65 1012.55 1013.06 1012.56 1012.35 1012.60 1012.77 1013.36 1014.08 1014.11 1013.86 1014.16 1014.51 1013.98 1014.21 1014.63 1015.11 1015.00 1015.00 1014.96 1015.18 1015.09 1015.49 1015.24 1015.17 1014.97 1014.99 1014.70 1014.70 1014.59 1014.66 1015.29 1015.66 1016.01 1016.38 1016.71 1017.02 1017.04 1017.37
1008.87 1010.04 1010.47 1011.39 1012.49 1012.71 1013.05 1012.88 1012.56 1012.54 1012.52 1012.65 1013.08 1013.70 1014.02 1013.88 1014.40 1014.94 1014.74 1014.98 1015.03 1015.03 1015.03 1014.96 1014.98 1015.16 1015.18 1014.76 1014.54 1014.25 1013.89 1013.96 1014.04 1014.18 1014.26 1014.74 1015.29 1015.47 1015.70 1016.15 1016.57 1016.75 1016.92
1008.78 1009.35 1010.02 1011.08 1012.00 1012.59 1012.89 1013.31 1012.78 1012.43 1012.18 1012.66 1012.83 1013.71 1014.19 1014.29 1014.23 1014.72 1014.60 1014.80 1014.74 1014.64 1014.54 1014.77 1014.65 1014.61 1014.57 1014.39 1013.66 1013.61 1013.23 1013.26 1012.99 1013.15 1013.60 1013.55 1014.55 1015.01 1015.04 1015.34 1015.71 1016.01 1016.48
1008.44 1009.17 1009.94 1010.62 1011.26 1012.05 1012.40 1013.11 1012.60 1012.38 1012.10 1012.41 1012.56 1013.21 1014.08 1014.32 1014.38 1014.86 1014.96 1014.84 1014.55 1014.36 1014.63 1014.52 1014.43 1014.63 1014.01 1013.53 1013.18 1013.25 1012.71 1012.40 1012.26 1012.60 1012.84 1012.79 1013.12 1013.87 1014.44 1014.73 1015.10 1015.34 1015.59
1008.18 1009.28 1009.98 1010.52 1010.82 1011.58 1012.12 1012.54 1012.21 1012.17 1012.15 1012.31 1012.31 1012.63 1013.61 1014.05 1014.29 1014.48 1014.48 1014.70 1014.17 1014.51 1014.57 1014.36 1014.10 1013.63 1013.69 1013.24 1012.86 1012.36 1012.07 1011.67 1011.83 1011.28 1011.81 1011.77 1011.84 1012.55 1012.86 1013.83 1014.32 1014.63 1014.94
1008.01 1009.18 1010.09 1010.48 1010.72 1011.46 1011.97 1012.20 1012.10 1012.12 1012.19 1012.73 1012.66 1012.88 1013.34 1013.43 1013.77 1014.06 1013.74 1014.07 1014.14 1014.31 1014.36 1014.29 1014.35 1013.90 1013.60 1013.54 1012.23 1011.46 1011.44 1011.02 1010.88 1011.65 1012.49 1011.41 1010.98 1011.60 1012.15 1012.38 1013.26 1013.87 1014.24
1007.84 1008.72 1009.67 1010.36 1010.81 1011.24 1011.43 1011.59 1011.52 1011.59 1011.89 1012.54 1012.58 1012.42 1012.77 1013.28 1013.20 1013.51 1013.67 1014.15 1013.91 1014.05 1014.02 1014.35 1014.17 1014.06 1013.04 1012.71 1012.10 1011.84 1012.06 1012.82 1012.25 1012.07 1012.40 1012.15 1010.49 1010.67 1011.03 1011.19 1011.75 1012.50 1012.94
1007.27 1008.24 1009.22 1010.00 1010.66 1011.11 1011.09 1011.17 1011.07 1011.11 1011.20 1011.49 1011.68 1012.03 1012.86 1013.10 1013.29 1013.42 1013.60 1013.84 1013.72 1013.47 1013.68 1014.01 1013.95 1013.36 1012.74 1012.75 1012.48 1011.80 1011.90 1012.60 1011.99 1011.74 1011.41 1010.60 1010.52 1010.52 1010.39 1010.45 1010.98 1011.91 1012.27
1006.32 1007.59 1008.60 1009.39 1010.12 1010.74 1010.68 1011.04 1011.12 1011.08 1011.23 1011.22 1011.33 1011.71 1012.31 1012.81 1012.88 1013.08 1013.20 1013.46 1013.37 1013.56 1013.15 1013.57 1013.53 1013.34 1012.76 1012.66 1012.88 1012.60 1012.18 1012.21 1012.05 1011.62 1010.95 1010.52 1010.57 1010.62 1010.36 1010.78 1010.81 1011.37 1011.91
1005.36 1006.67 1007.69 1008.74 1009.40 1010.20 1010.56 1010.36 1010.69 1010.90 1010.72 1010.79 1011.12 1011.31 1011.59 1012.06 1012.31 1012.48 1012.82 1013.05 1013.25 1012.92 1012.92 1012.89 1013.09 1013.14 1013.11 1013.02 1012.81 1012.70 1012.88 1012.98 1012.39 1011.46 1010.80 1010.57 1010.69 1010.37 1010.38 1010.89 1010.70 1011.28 1011.99
1004.34 1005.36 1006.61 1007.83 1008.73 1009.24 1009.97 1010.11 1010.37 1010.64 1010.34 1010.30 1010.47 1010.72 1011.29 1011.48 1011.95 1011.96 1012.30 1012.65 1012.96 1013.06 1012.76 1013.12 1013.14 1013.08 1012.95 1013.03 1012.77 1012.45 1012.63 1012.59 1012.79 1012.22 1011.21 1010.82 1010.62 1010.35 1010.35 1010.70 1011.07 1010.92 1011.73
1003.20 1004.40 1005.38 1006.81 1007.96 1008.78 1009.30 1009.94 1009.88 1010.08 1010.31 1009.94 1010.19 1010.27 1010.78 1011.22 1011.33 1011.85 1011.79 1012.33 1012.57 1012.68 1012.75 1012.95 1013.10 1013.20 1013.34 1013.08 1012.69 1012.72 1012.26 1012.63 1012.14 1011.88 1011.14 1011.14 1010.65 1010.57 1010.30 1010.45 1010.63 1010.87 1011.24
Wind_Speed
17 17 13 11 10 7 6 7 7 8 9 12 9 8 9 7 6 6 6 9 7 7 7 6 8 7 7 7 8 8 7 8 9 9 8 8 9 8 6 6 9 14 11
22 19 14 13 11 9 7 8 7 7 9 9 9 8 7 7 7 7 7 6 6 7 7 7 7 7 7 9 8 8 8 7 8 9 9 8 8 6 3 3 3 14 11
20 19 15 13 12 10 8 8 9 8 7 8 7 7 8 7 6 7 7 7 6 7 8 7 7 7 6 7 7 7 7 7 6 7 10 9 11 5 3 5 10 13 10
19 18 17 14 13 12 9 9 9 8 7 7 8 7 8 9 9 8 8 8 7 7 9 8 7 7 6 6 7 7 7 5 4 4 4 7 10 10 5 5 7 9 8
18 17 18 15 13 11 10 9 9 8 8 8 8 7 10 10 9 8 8 8 7 6 8 8 7 7 7 6 6 7 5 4 5 8 9 7 5 12 8 7 7 7 9
16 21 18 16 13 12 10 9 9 8 7 7 8 9 8 9 7 9 9 8 9 8 8 8 7 7 7 6 4 4 3 2 7 9 5 5 7 12 10 6 4 6 6
16 18 16 13 12 11 11 10 10 9 8 9 9 9 9 10 9 9 9 9 7 7 7 7 7 6 5 5 4 3 1 4 6 11 11 0 7 10 8 7 4 6 7
13 17 16 14 13 11 11 10 12 11 9 9 9 9 7 9 9 8 8 6 7 6 6 5 5 4 5 5 4 2 1 4 2 8 9 10 7 5 4 6 5 7 7
14 19 16 14 12 10 10 10 10 12 9 8 9 9 7 9 9 9 8 6 5 5 4 4 3 4 4 4 3 3 1 5 6 2 7 5 8 1 3 3 6 9 8
11 15 16 16 14 11 12 10 11 12 10 8 7 7 9 9 9 9 9 7 4 3 4 4 5 4 5 5 6 5 5 6 7 7 4 4 3 3 7 8 7 10 8
11 12 12 15 11 9 10 10 11 11 10 8 9 8 10 8 11 12 8 8 5 4 4 5 7 8 7 9 8 7 7 3 7 5 4 9 10 3 2 4 3 11 12
14 13 13 13 17 15 11 12 11 11 10 10 9 9 10 7 5 5 11 9 9 9 8 9 10 10 9 8 7 7 6 4 5 8 6 13 15 14 13 10 13 10 14
15 11 11 10 8 12 9 8 6 7 8 6 8 8 3 9 6 8 7 8 8 12 7 10 10 9 9 5 4 2 4 6 4 2 7 16 17 16 16 14 15 14 14
16 12 12 12 6 8 7 9 10 4 7 8 9 8 6 6 3 1 5 3 4 5 4 8 3 6 3 6 6 6 7 6 2 4 6 18 18 17 15 14 19 19 17
16 13 13 15 11 8 6 7 6 6 6 10 7 10 8 3 1 3 1 1 1 4 3 3 5 3 3 8 7 3 7 7 7 3 3 17 18 19 20 19 18 21 19
14 16 14 14 13 10 9 7 5 6 8 7 8 9 5 2 4 3 3 4 3 5 3 3 2 5 2 6 5 6 8 8 7 6 4 6 18 20 21 20 19 21 21
13 15 15 14 15 12 10 8 7 7 8 7 6 11 8 6 5 3 1 1 1 3 3 2 3 3 2 8 6 5 5 6 6 7 6 7 8 19 21 22 21 21 21
14 15 14 12 15 14 12 10 8 8 7 7 7 9 9 7 3 5 2 3 2 3 3 5 4 4 4 6 0 4 5 7 1 5 6 3 6 7 16 19 20 21 24
14 14 13 13 14 14 12 10 10 10 3 2 6 6 11 8 7 6 5 3 2 2 4 2 5 1 4 4 4 6 7 7 6 6 6 9 6 6 5 16 21 22 24
13 15 14 12 12 13 11 9 8 6 6 5 4 4 9 8 9 8 5 3 3 3 2 4 3 6 5 4 9 6 7 2 3 2 3 5 5 5 6 8 9 10 21
16 16 16 14 12 11 10 9 9 8 7 4 4 7 4 6 6 6 6 4 4 6 2 4 2 5 6 5 8 4 6 5 10 5 7 11 3 4 11 8 7 5 6
17 16 16 16 14 12 10 9 8 8 8 8 8 9 8 8 7 7 5 7 6 2 5 3 3 6 1 3 6 9 2 3 6 8 7 6 8 8 7 9 0 4 5
19 18 17 16 16 14 12 9 7 6 6 7 6 7 9 9 8 8 6 6 3 3 4 5 5 3 5 3 3 5 6 7 6 5 7 5 4 5 5 8 3 3 2
19 19 18 18 17 16 15 12 10 10 9 9 8 9 8 11 10 9 9 8 7 6 3 3 7 4 2 7 3 1 4 5 5 5 4 1 4 7 7 6 7 5 1
21 19 19 18 17 15 15 13 11 11 9 8 8 7 7 7 9 9 9 9 8 7 6 4 4 5 5 5 6 4 2 3 4 4 7 7 6 5 4 2 5 3 4
19 18 19 18 17 17 16 17 13 12 12 8 8 7 8 9 10 10 9 8 8 8 6 5 6 7 6 6 6 4 3 4 4 5 6 7 4 3 5 2 1 3 1
Wind_Direction
137 134 149 154 139 130 122 119 121 111 117 143 143 140 129 131 133 138 124 113 107 102 112 110 109 108 96 116 128 126 116 110 104 108 111 117 116 115 135 150 175 113 120
127 142 152 150 142 130 118 126 120 130 126 135 145 144 129 131 134 143 137 121 119 117 129 132 113 111 110 101 118 118 117 116 125 128 132 124 111 116 112 39 345 105 123
128 133 155 154 147 133 136 140 125 134 135 134 137 141 138 138 141 142 138 123 136 132 130 124 128 119 124 116 118 120 121 129 133 173 181 175 120 131 127 84 101 114 128
132 152 144 154 148 142 144 141 129 130 136 140 143 134 146 139 137 136 130 133 132 135 140 132 128 131 119 114 133 119 121 133 188 203 236 281 134 140 146 119 113 130 132
143 140 122 146 146 151 150 140 139 141 141 141 131 126 133 139 134 136 132 127 132 135 125 128 126 125 125 130 133 132 136 141 234 242 236 211 340 140 157 154 158 158 175
154 108 130 149 152 156 150 148 145 138 138 132 125 122 128 131 140 140 144 139 140 134 132 122 127 133 135 140 144 133 131 214 266 272 188 87 74 140 151 177 210 147 135
140 120 134 153 153 156 156 161 148 140 144 142 137 133 153 144 136 146 140 134 134 131 131 137 132 126 127 137 153 152 184 269 300 320 338 280 107 142 159 181 191 158 156
135 137 132 146 153 157 161 168 157 144 138 142 139 134 141 136 136 130 141 137 135 136 127 131 133 145 164 168 179 194 263 98 355 337 338 313 81 111 165 197 191 190 183
148 130 151 156 155 162 159 169 148 136 148 149 145 138 140 143 137 145 137 138 140 133 137 139 162 179 198 200 220 232 224 132 134 243 314 330 88 335 288 266 231 209 210
155 141 151 153 154 161 161 164 156 141 150 156 143 154 159 152 153 154 155 155 156 154 171 184 199 216 208 210 229 226 230 175 157 171 197 256 9 324 53 348 306 305 241
174 150 154 128 157 151 136 142 158 154 159 170 168 182 186 202 176 162 120 141 161 171 179 188 200 210 213 215 219 225 236 270 189 166 185 217 137 150 273 174 278 287 279
173 164 151 149 149 163 176 149 172 164 170 192 174 181 216 177 117 185 140 167 187 192 197 192 194 210 220 210 186 214 233 223 240 169 195 193 178 189 214 197 222 207 273
168 165 144 139 169 147 133 160 178 182 156 164 154 194 226 174 177 211 149 185 198 198 192 206 202 222 210 250 224 265 241 210 229 239 194 188 201 197 207 206 212 215 212
165 162 164 132 179 167 147 203 174 171 170 157 163 230 127 235 169 124 227 148 168 181 162 198 208 204 209 222 256 237 274 290 201 189 200 185 201 205 211 210 206 215 216
161 170 176 152 171 172 165 227 165 157 209 118 164 205 188 84 67 164 126 233 190 303 300 127 257 120 95 279 288 298 261 265 256 267 196 185 199 206 209 211 220 220 212
167 170 179 168 165 177 194 214 173 184 210 155 173 157 245 118 156 266 182 214 212 210 212 276 8 321 106 266 217 277 255 195 212 216 249 186 204 204 213 218 217 227 224
179 170 169 177 169 180 183 189 212 202 175 166 184 140 212 217 188 309 317 263 251 239 271 332 284 251 244 266 245 263 266 252 221 229 246 205 199 210 211 215 216 222 215
181 163 163 185 173 182 175 184 205 217 168 180 181 170 193 217 252 232 287 302 231 206 205 250 188 203 277 272 292 216 273 256 243 218 243 280 226 193 211 219 216 223 217
177 164 172 189 181 171 166 178 210 190 185 250 191 190 170 203 216 255 208 288 302 61 301 255 267 296 235 275 279 222 209 230 193 198 188 223 202 211 217 203 212 219 224
176 167 181 186 184 166 160 182 215 189 173 202 200 198 170 208 205 220 258 147 273 280 137 359 3 317 332 282 281 284 313 346 183 160 1 255 119 171 220 213 194 223 226
175 174 178 185 175 182 179 199 202 206 190 195 205 218 197 233 233 203 252 128 212 196 248 258 267 211 264 247 299 7 157 143 300 253 148 253 186 149 203 222 205 202 213
178 180 180 185 180 197 200 201 209 210 204 204 207 166 210 223 226 243 249 197 221 216 182 241 255 287 131 33 320 320 33 215 25 341 345 333 51 314 342 1 258 214 242
180 186 184 189 181 195 207 204 210 238 253 206 224 190 193 218 225 218 209 252 282 269 165 206 210 246 335 351 305 323 339 358 346 320 326 297 27 322 342 345 77 351 260
194 185 188 191 190 193 207 195 206 207 212 221 208 214 220 196 213 209 211 221 224 269 312 219 212 284 290 286 144 290 342 347 333 352 13 5 275 266 48 337 3 62 38
191 191 189 189 195 197 194 226 188 225 214 226 219 209 194 209 210 225 202 210 224 235 220 268 281 260 285 263 277 331 338 273 198 303 318 7 338 328 29 8 340 69 154
191 194 189 182 191 200 192 204 218 198 240 229 208 211 219 215 197 214 218 212 228 239 237 251 240 248 267 292 283 310 304 318 310 336 338 318 316 355 298 245 50 35 68